GFSGBSN_prec_precacc_096.txt.gz
Total_Precipitation_Accumulation
0.06 0.07 0.07 0.05 0.05 0.05 0.04 0.05 0.04 0.04 0.03 0.03 0.03 0.02 0.03 0.03 0.03 0.02 0.02 0.02 0.02 0.02 0.02 0.02 0.02 0.03 0.01 0.00 0.00 0.00 0.00 0.00 0.00 0.00 0.00 0.00 0.00 0.00 0.00 0.00 0.00 0.00 0.00 0.00 0.01 0.01 0.01
0.08 0.08 0.07 0.06 0.05 0.04 0.04 0.04 0.04 0.04 0.04 0.04 0.04 0.03 0.03 0.03 0.02 0.02 0.02 0.02 0.02 0.02 0.02 0.02 0.02 0.03 0.00 0.00 0.00 0.00 0.00 0.00 0.00 0.00 0.00 0.00 0.00 0.00 0.00 0.00 0.00 0.00 0.00 0.00 0.02 0.00 0.00
0.13 0.11 0.09 0.07 0.06 0.04 0.03 0.04 0.03 0.03 0.04 0.04 0.04 0.04 0.03 0.03 0.03 0.02 0.02 0.02 0.02 0.02 0.02 0.02 0.02 0.02 0.00 0.00 0.00 0.00 0.00 0.00 0.00 0.00 0.00 0.00 0.00 0.00 0.00 0.00 0.00 0.00 0.00 0.00 0.00 0.01 0.01
0.18 0.13 0.10 0.09 0.07 0.06 0.05 0.04 0.03 0.02 0.04 0.04 0.04 0.03 0.03 0.02 0.02 0.02 0.02 0.02 0.02 0.02 0.03 0.03 0.03 0.01 0.00 0.00 0.00 0.00 0.00 0.00 0.00 0.00 0.00 0.00 0.00 0.00 0.00 0.00 0.00 0.00 0.00 0.00 0.00 0.01 0.02
0.16 0.11 0.10 0.11 0.09 0.08 0.06 0.05 0.04 0.03 0.03 0.04 0.03 0.02 0.02 0.02 0.02 0.02 0.02 0.02 0.02 0.03 0.03 0.02 0.01 0.00 0.00 0.00 0.00 0.00 0.00 0.02 0.00 0.00 0.00 0.00 0.00 0.00 0.00 0.00 0.00 0.00 0.00 0.00 0.00 0.00 0.01
0.27 0.21 0.14 0.11 0.08 0.07 0.07 0.07 0.07 0.05 0.04 0.04 0.03 0.03 0.01 0.01 0.02 0.03 0.02 0.02 0.02 0.02 0.01 0.00 0.01 0.00 0.00 0.00 0.00 0.00 0.00 0.02 0.01 0.00 0.00 0.00 0.00 0.00 0.00 0.00 0.00 0.00 0.00 0.00 0.02 0.07 0.00
0.29 0.20 0.13 0.10 0.08 0.07 0.07 0.09 0.08 0.06 0.05 0.04 0.03 0.02 0.01 0.01 0.02 0.03 0.01 0.01 0.00 0.00 0.00 0.00 0.00 0.00 0.00 0.00 0.00 0.00 0.00 0.00 0.00 0.00 0.02 0.00 0.00 0.00 0.00 0.00 0.00 0.00 0.00 0.00 0.00 0.00 0.00
0.24 0.20 0.14 0.12 0.11 0.09 0.10 0.11 0.10 0.08 0.06 0.04 0.03 0.02 0.01 0.01 0.04 0.03 0.00 0.00 0.00 0.00 0.01 0.00 0.00 0.00 0.00 0.00 0.00 0.00 0.00 0.03 0.02 0.03 0.02 0.02 0.01 0.00 0.00 0.00 0.00 0.00 0.00 0.00 0.00 0.00 0.00
0.29 0.24 0.16 0.11 0.09 0.09 0.09 0.10 0.09 0.07 0.06 0.05 0.04 0.02 0.02 0.04 0.05 0.01 0.00 0.00 0.00 0.00 0.01 0.00 0.00 0.00 0.00 0.00 0.00 0.00 0.00 0.01 0.03 0.02 0.03 0.03 0.02 0.00 0.00 0.00 0.00 0.00 0.00 0.00 0.00 0.00 0.00
0.26 0.19 0.14 0.10 0.08 0.09 0.08 0.08 0.08 0.07 0.07 0.06 0.05 0.03 0.04 0.06 0.02 0.00 0.00 0.00 0.00 0.00 0.01 0.00 0.00 0.00 0.00 0.00 0.00 0.00 0.00 0.00 0.01 0.01 0.06 0.09 0.00 0.01 0.01 0.00 0.00 0.00 0.00 0.00 0.00 0.00 0.00
0.28 0.20 0.17 0.14 0.12 0.09 0.08 0.08 0.09 0.09 0.08 0.07 0.06 0.05 0.06 0.08 0.02 0.01 0.00 0.00 0.00 0.03 0.02 0.00 0.00 0.00 0.00 0.00 0.00 0.00 0.00 0.00 0.01 0.02 0.08 0.10 0.01 0.01 0.00 0.00 0.00 0.01 0.00 0.00 0.00 0.00 0.05
0.29 0.19 0.14 0.13 0.12 0.11 0.09 0.09 0.09 0.09 0.09 0.08 0.08 0.08 0.13 0.08 0.04 0.01 0.00 0.01 0.05 0.11 0.04 0.00 0.00 0.00 0.00 0.00 0.00 0.00 0.00 0.00 0.02 0.14 0.06 0.01 0.01 0.05 0.02 0.00 0.00 0.00 0.02 0.02 0.00 0.01 0.03
0.27 0.17 0.13 0.13 0.14 0.15 0.15 0.13 0.12 0.12 0.12 0.12 0.13 0.15 0.17 0.06 0.03 0.00 0.01 0.10 0.16 0.07 0.00 0.00 0.00 0.00 0.00 0.00 0.00 0.00 0.00 0.00 0.02 0.12 0.09 0.03 0.04 0.03 0.00 0.01 0.01 0.01 0.10 0.19 0.19 0.07 0.03
0.38 0.25 0.20 0.17 0.17 0.18 0.21 0.18 0.16 0.16 0.16 0.17 0.18 0.21 0.12 0.06 0.03 0.04 0.16 0.31 0.12 0.00 0.00 0.00 0.00 0.00 0.00 0.01 0.01 0.01 0.02 0.00 0.00 0.03 0.11 0.16 0.12 0.03 0.05 0.03 0.04 0.03 0.11 0.18 0.29 0.10 0.05
0.43 0.36 0.25 0.21 0.18 0.17 0.18 0.17 0.19 0.22 0.27 0.28 0.38 0.27 0.21 0.05 0.04 0.16 0.55 0.44 0.04 0.00 0.00 0.00 0.00 0.01 0.03 0.07 0.08 0.03 0.04 0.04 0.02 0.08 0.22 0.14 0.08 0.03 0.03 0.03 0.08 0.15 0.12 0.04 0.26 0.17 0.17
0.53 0.44 0.41 0.32 0.26 0.21 0.21 0.22 0.22 0.26 0.33 0.47 0.47 0.40 0.14 0.04 0.16 0.53 0.95 0.30 0.01 0.02 0.00 0.00 0.01 0.05 0.09 0.05 0.09 0.13 0.10 0.20 0.13 0.18 0.14 0.22 0.41 0.09 0.03 0.08 0.11 0.09 0.16 0.30 0.40 0.28 0.19
0.62 0.48 0.45 0.40 0.38 0.31 0.29 0.31 0.32 0.30 0.44 0.73 0.86 0.80 0.15 0.09 0.64 1.13 0.87 0.13 0.00 0.00 0.00 0.00 0.01 0.07 0.09 0.10 0.11 0.15 0.28 0.31 0.43 0.15 0.10 0.10 0.27 0.19 0.20 0.21 0.10 0.12 0.25 0.33 0.33 0.12 0.13
0.61 0.57 0.51 0.48 0.41 0.45 0.39 0.44 0.53 0.48 0.68 1.18 1.37 1.00 0.28 0.38 0.92 0.64 0.30 0.06 0.01 0.00 0.00 0.00 0.00 0.03 0.12 0.12 0.14 0.19 0.31 0.33 0.33 0.18 0.08 0.09 0.37 0.23 0.15 0.06 0.03 0.13 0.15 0.26 0.36 0.23 0.10
0.74 0.57 0.55 0.67 0.60 0.65 0.61 0.59 0.65 0.62 0.99 1.47 1.81 0.96 0.82 0.86 0.92 0.41 0.19 0.05 0.02 0.00 0.01 0.01 0.02 0.03 0.07 0.09 0.19 0.12 0.30 0.34 0.50 0.32 0.13 0.32 0.36 0.41 0.36 0.22 0.14 0.22 0.15 0.22 0.39 0.37 0.29
0.85 0.68 0.53 0.64 0.69 0.81 0.81 0.76 0.76 0.81 1.09 1.85 2.45 1.70 1.77 1.25 0.63 0.36 0.32 0.14 0.04 0.00 0.00 0.03 0.02 0.04 0.09 0.12 0.13 0.14 0.25 0.47 0.74 0.54 0.24 0.46 0.31 0.53 0.29 0.29 0.53 0.47 0.32 0.34 0.46 0.52 0.15
0.78 0.74 0.64 0.66 0.71 0.81 0.94 1.00 1.00 1.11 1.30 2.79 3.20 1.27 0.81 0.81 0.46 0.38 0.49 0.46 0.19 0.10 0.07 0.03 0.07 0.12 0.16 0.16 0.11 0.09 0.28 0.73 0.96 0.69 0.35 0.30 0.26 0.55 0.33 0.12 0.10 0.22 0.23 0.27 0.38 0.25 0.16
0.70 0.63 0.62 0.62 0.75 0.92 0.92 1.07 1.18 1.50 1.94 4.14 3.40 0.55 0.39 0.43 0.43 0.71 0.50 0.40 0.31 0.28 0.34 0.20 0.19 0.08 0.08 0.11 0.08 0.16 0.30 0.40 0.67 0.48 0.41 0.35 0.26 0.22 0.09 0.08 0.08 0.15 0.19 0.13 0.15 0.11 0.09
0.65 0.64 0.64 0.57 0.67 0.88 0.90 0.96 1.19 1.71 3.05 5.34 2.99 0.40 0.52 0.35 0.21 0.54 0.55 0.40 0.50 0.73 0.37 0.15 0.30 0.17 0.12 0.18 0.12 0.06 0.12 0.13 0.18 0.38 0.44 0.33 0.30 0.19 0.26 0.08 0.08 0.10 0.05 0.14 0.14 0.11 0.07
0.63 0.70 0.67 0.68 0.64 0.83 0.81 0.86 1.10 1.88 2.82 3.24 1.80 0.56 0.83 0.63 0.23 0.14 0.10 0.23 0.37 0.52 1.16 0.34 0.21 0.22 0.20 0.12 0.14 0.15 0.09 0.05 0.09 0.11 0.27 0.25 0.12 0.19 0.23 0.14 0.27 0.12 0.05 0.22 0.36 0.29 0.11
0.82 0.80 0.82 0.90 0.83 0.91 0.90 0.90 1.01 1.51 2.03 2.19 1.67 0.89 0.85 0.61 0.18 0.09 0.04 0.09 0.16 0.50 0.64 0.81 0.57 0.37 0.18 0.14 0.32 0.38 0.31 0.35 0.12 0.05 0.07 0.20 0.18 0.25 0.19 0.20 0.20 0.12 0.26 0.33 0.67 0.61 0.31
0.95 0.86 0.85 0.93 0.97 1.01 0.98 0.89 0.88 1.09 1.74 2.18 2.10 1.48 1.53 1.09 0.27 0.06 0.06 0.05 0.11 0.32 0.28 0.33 0.62 0.50 0.35 0.24 0.41 0.44 0.31 0.31 0.19 0.10 0.01 0.05 0.19 0.34 0.25 0.26 0.22 0.14 0.11 0.26 0.50 1.08 0.92
0.76 0.74 0.66 0.74 0.86 0.85 0.87 0.85 0.76 0.79 1.28 2.21 2.63 1.56 2.43 1.95 0.35 0.23 0.24 0.16 0.10 0.19 0.25 0.23 0.27 0.24 0.20 0.42 0.45 0.28 0.21 0.13 0.27 0.30 0.13 0.08 0.18 0.29 0.35 0.36 0.11 0.03 0.06 0.19 0.94 1.02 1.01
0.70 0.78 0.66 0.68 0.66 0.57 0.68 0.72 0.65 0.73 1.12 1.87 2.72 1.39 2.08 2.20 0.57 0.25 0.27 0.26 0.14 0.22 0.44 0.36 0.64 0.43 0.46 0.46 0.26 0.17 0.19 0.15 0.23 0.34 0.27 0.25 0.38 0.32 0.34 0.41 0.18 0.13 0.27 0.61 0.87 0.95 1.00
0.70 0.72 0.59 0.63 0.62 0.55 0.53 0.59 0.66 0.73 1.18 1.61 2.39 1.46 1.43 2.16 1.24 0.36 0.24 0.20 0.14 0.15 0.45 0.59 0.52 0.63 0.69 0.62 0.40 0.32 0.26 0.23 0.23 0.47 0.27 0.32 0.25 0.30 0.28 0.32 0.33 0.18 0.29 0.56 0.68 0.74 0.75

GFSGBSN_prec_precacc_102.txt.gz
Total_Precipitation_Accumulation
0.06 0.07 0.07 0.06 0.05 0.05 0.05 0.05 0.04 0.04 0.03 0.03 0.03 0.02 0.03 0.03 0.03 0.02 0.02 0.02 0.02 0.02 0.02 0.02 0.02 0.03 0.01 0.00 0.00 0.00 0.00 0.00 0.00 0.00 0.00 0.00 0.00 0.00 0.00 0.00 0.00 0.00 0.00 0.00 0.01 0.01 0.01
0.09 0.09 0.10 0.08 0.08 0.07 0.06 0.05 0.04 0.04 0.04 0.04 0.04 0.03 0.03 0.03 0.02 0.02 0.02 0.02 0.02 0.02 0.02 0.02 0.02 0.03 0.00 0.00 0.00 0.00 0.00 0.00 0.00 0.00 0.00 0.00 0.00 0.00 0.00 0.00 0.00 0.00 0.00 0.00 0.02 0.00 0.00
0.19 0.19 0.19 0.18 0.14 0.11 0.07 0.05 0.04 0.03 0.04 0.04 0.04 0.04 0.03 0.03 0.03 0.02 0.02 0.02 0.02 0.02 0.02 0.02 0.02 0.02 0.00 0.00 0.00 0.00 0.00 0.00 0.00 0.00 0.00 0.00 0.00 0.00 0.00 0.00 0.00 0.00 0.00 0.00 0.00 0.01 0.01
0.34 0.29 0.25 0.25 0.19 0.13 0.10 0.08 0.05 0.03 0.04 0.04 0.04 0.03 0.03 0.02 0.02 0.02 0.02 0.02 0.02 0.02 0.03 0.03 0.03 0.01 0.00 0.00 0.00 0.00 0.00 0.00 0.00 0.00 0.00 0.00 0.00 0.00 0.00 0.00 0.00 0.00 0.00 0.00 0.00 0.01 0.02
0.34 0.28 0.24 0.24 0.23 0.19 0.15 0.11 0.07 0.04 0.03 0.04 0.03 0.02 0.02 0.02 0.02 0.02 0.02 0.02 0.02 0.03 0.03 0.02 0.01 0.00 0.00 0.00 0.00 0.00 0.00 0.02 0.00 0.00 0.00 0.00 0.00 0.00 0.00 0.00 0.00 0.00 0.00 0.00 0.00 0.00 0.01
0.41 0.35 0.30 0.27 0.21 0.16 0.11 0.09 0.08 0.05 0.04 0.04 0.03 0.03 0.01 0.01 0.02 0.03 0.02 0.02 0.02 0.02 0.01 0.00 0.01 0.00 0.00 0.00 0.00 0.00 0.00 0.02 0.01 0.00 0.00 0.00 0.00 0.00 0.00 0.00 0.00 0.00 0.00 0.00 0.02 0.07 0.00
0.44 0.35 0.23 0.19 0.15 0.13 0.12 0.12 0.11 0.07 0.06 0.04 0.03 0.02 0.01 0.01 0.02 0.03 0.01 0.01 0.00 0.00 0.00 0.00 0.00 0.00 0.00 0.00 0.00 0.00 0.00 0.00 0.00 0.00 0.02 0.00 0.00 0.00 0.00 0.00 0.00 0.00 0.00 0.00 0.00 0.00 0.00
0.45 0.41 0.34 0.31 0.27 0.24 0.20 0.16 0.13 0.09 0.06 0.04 0.03 0.02 0.01 0.01 0.04 0.03 0.00 0.00 0.00 0.00 0.01 0.00 0.00 0.00 0.00 0.00 0.00 0.00 0.00 0.03 0.02 0.03 0.02 0.02 0.01 0.00 0.00 0.00 0.00 0.00 0.00 0.00 0.00 0.00 0.00
0.49 0.42 0.31 0.23 0.21 0.17 0.14 0.15 0.13 0.09 0.06 0.05 0.04 0.02 0.02 0.04 0.05 0.01 0.00 0.00 0.00 0.00 0.01 0.00 0.00 0.00 0.00 0.00 0.00 0.00 0.00 0.01 0.03 0.02 0.03 0.03 0.02 0.00 0.00 0.00 0.00 0.00 0.00 0.00 0.00 0.00 0.00
0.44 0.41 0.36 0.31 0.24 0.18 0.12 0.10 0.09 0.07 0.07 0.06 0.05 0.03 0.04 0.06 0.02 0.00 0.00 0.00 0.00 0.00 0.01 0.00 0.00 0.00 0.00 0.00 0.00 0.00 0.00 0.00 0.01 0.01 0.06 0.09 0.00 0.01 0.01 0.00 0.00 0.00 0.00 0.00 0.00 0.00 0.00
0.47 0.45 0.40 0.34 0.25 0.17 0.13 0.12 0.11 0.09 0.08 0.07 0.06 0.05 0.06 0.08 0.02 0.01 0.00 0.00 0.00 0.03 0.02 0.00 0.00 0.00 0.00 0.00 0.00 0.00 0.00 0.00 0.01 0.02 0.08 0.10 0.01 0.01 0.00 0.00 0.00 0.01 0.00 0.00 0.00 0.00 0.05
0.45 0.36 0.32 0.32 0.26 0.18 0.14 0.13 0.10 0.09 0.09 0.08 0.08 0.08 0.13 0.08 0.04 0.01 0.00 0.01 0.05 0.11 0.04 0.00 0.00 0.00 0.00 0.00 0.00 0.00 0.00 0.00 0.02 0.14 0.06 0.01 0.01 0.05 0.02 0.00 0.00 0.00 0.02 0.04 0.03 0.04 0.07
0.49 0.37 0.32 0.31 0.26 0.23 0.19 0.15 0.12 0.12 0.12 0.12 0.13 0.15 0.17 0.06 0.03 0.00 0.01 0.10 0.16 0.07 0.00 0.00 0.00 0.00 0.00 0.00 0.00 0.00 0.00 0.00 0.02 0.12 0.09 0.03 0.04 0.03 0.00 0.01 0.01 0.01 0.12 0.25 0.27 0.11 0.05
0.66 0.51 0.43 0.36 0.29 0.26 0.23 0.19 0.16 0.16 0.17 0.17 0.18 0.21 0.12 0.06 0.03 0.04 0.16 0.31 0.12 0.00 0.00 0.00 0.00 0.00 0.00 0.01 0.01 0.01 0.02 0.00 0.00 0.03 0.12 0.17 0.12 0.03 0.06 0.04 0.05 0.05 0.18 0.27 0.35 0.15 0.07
0.81 0.73 0.57 0.38 0.27 0.25 0.24 0.20 0.20 0.22 0.27 0.28 0.38 0.27 0.21 0.05 0.04 0.16 0.55 0.44 0.04 0.00 0.00 0.00 0.00 0.01 0.03 0.07 0.08 0.03 0.04 0.04 0.02 0.09 0.24 0.16 0.09 0.03 0.04 0.04 0.12 0.22 0.18 0.09 0.36 0.26 0.26
0.94 0.78 0.67 0.50 0.38 0.30 0.26 0.24 0.24 0.27 0.34 0.47 0.47 0.40 0.14 0.04 0.16 0.53 0.95 0.30 0.01 0.02 0.00 0.00 0.01 0.05 0.09 0.05 0.09 0.13 0.10 0.20 0.13 0.21 0.16 0.24 0.42 0.09 0.05 0.13 0.15 0.22 0.22 0.41 0.53 0.50 0.31
0.94 0.74 0.62 0.52 0.45 0.38 0.32 0.32 0.33 0.30 0.44 0.73 0.86 0.81 0.15 0.09 0.64 1.13 0.87 0.13 0.00 0.00 0.00 0.00 0.01 0.07 0.09 0.10 0.11 0.16 0.30 0.31 0.44 0.18 0.11 0.11 0.28 0.20 0.22 0.25 0.16 0.20 0.36 0.40 0.41 0.16 0.25
0.86 0.74 0.64 0.57 0.44 0.47 0.39 0.44 0.53 0.48 0.68 1.18 1.37 1.00 0.28 0.38 0.92 0.64 0.30 0.06 0.01 0.00 0.00 0.00 0.00 0.03 0.12 0.12 0.14 0.19 0.31 0.33 0.34 0.18 0.08 0.11 0.43 0.24 0.16 0.08 0.04 0.18 0.23 0.30 0.44 0.27 0.15
0.94 0.69 0.60 0.69 0.61 0.65 0.61 0.59 0.65 0.62 0.99 1.47 1.81 0.96 0.82 0.86 0.93 0.41 0.19 0.05 0.02 0.00 0.01 0.01 0.02 0.03 0.07 0.10 0.21 0.13 0.31 0.35 0.52 0.32 0.13 0.36 0.40 0.45 0.38 0.24 0.16 0.29 0.28 0.26 0.47 0.50 0.39
0.95 0.74 0.54 0.64 0.70 0.82 0.81 0.76 0.76 0.81 1.09 1.85 2.45 1.70 1.77 1.25 0.63 0.36 0.32 0.14 0.04 0.00 0.00 0.03 0.02 0.05 0.10 0.13 0.17 0.17 0.26 0.48 0.76 0.54 0.24 0.64 0.41 0.55 0.31 0.32 0.55 0.49 0.38 0.40 0.53 0.59 0.30
0.85 0.75 0.65 0.66 0.72 0.81 0.94 1.00 1.00 1.11 1.30 2.79 3.20 1.27 0.81 0.81 0.46 0.38 0.49 0.46 0.19 0.10 0.07 0.03 0.07 0.13 0.17 0.17 0.11 0.09 0.29 0.74 0.96 0.70 0.38 0.56 0.36 0.68 0.51 0.16 0.18 0.26 0.31 0.41 0.58 0.53 0.46
0.72 0.63 0.62 0.62 0.75 0.93 0.92 1.07 1.18 1.50 1.94 4.14 3.40 0.56 0.39 0.43 0.43 0.71 0.50 0.40 0.31 0.28 0.34 0.20 0.19 0.08 0.09 0.11 0.10 0.17 0.30 0.41 0.69 0.51 0.51 0.52 0.43 0.70 0.90 0.32 0.26 0.37 0.55 0.32 0.39 0.38 0.31
0.65 0.64 0.64 0.58 0.68 0.88 0.90 0.96 1.19 1.71 3.05 5.34 2.99 0.40 0.52 0.36 0.21 0.54 0.55 0.40 0.50 0.73 0.37 0.15 0.31 0.18 0.12 0.18 0.12 0.06 0.12 0.13 0.19 0.40 0.55 0.49 0.71 0.54 0.75 0.26 0.28 0.59 0.42 0.20 0.18 0.16 0.08
0.63 0.70 0.67 0.69 0.65 0.83 0.81 0.86 1.10 1.88 2.82 3.24 1.80 0.56 0.83 0.64 0.23 0.14 0.10 0.23 0.37 0.52 1.16 0.34 0.22 0.23 0.20 0.12 0.14 0.15 0.09 0.05 0.09 0.12 0.33 0.49 0.40 0.28 0.40 0.24 0.44 0.53 0.17 0.23 0.36 0.30 0.11
0.82 0.80 0.82 0.91 0.84 0.91 0.90 0.90 1.01 1.51 2.03 2.19 1.67 0.89 0.85 0.61 0.18 0.09 0.04 0.09 0.16 0.50 0.64 0.81 0.57 0.37 0.18 0.14 0.34 0.42 0.40 0.40 0.12 0.06 0.10 0.25 0.22 0.27 0.24 0.25 0.33 0.16 0.26 0.34 0.69 0.64 0.33
0.96 0.87 0.86 0.94 0.97 1.01 0.98 0.89 0.88 1.09 1.74 2.18 2.10 1.48 1.53 1.09 0.28 0.06 0.06 0.05 0.11 0.32 0.28 0.34 0.62 0.50 0.35 0.25 0.55 0.64 0.40 0.49 0.24 0.11 0.02 0.08 0.20 0.37 0.27 0.28 0.24 0.15 0.11 0.26 0.50 1.10 0.94
0.76 0.75 0.67 0.74 0.86 0.85 0.87 0.85 0.76 0.79 1.28 2.21 2.65 1.56 2.43 1.96 0.35 0.23 0.24 0.16 0.10 0.19 0.25 0.23 0.27 0.24 0.21 0.43 0.54 0.33 0.26 0.19 0.33 0.36 0.16 0.08 0.18 0.29 0.35 0.36 0.11 0.03 0.06 0.19 0.95 1.09 1.04
0.70 0.78 0.66 0.69 0.66 0.57 0.68 0.72 0.65 0.73 1.12 1.87 2.72 1.39 2.08 2.20 0.57 0.25 0.27 0.26 0.14 0.22 0.44 0.36 0.64 0.44 0.46 0.46 0.26 0.17 0.27 0.39 0.42 0.35 0.27 0.26 0.40 0.33 0.35 0.42 0.20 0.13 0.27 0.64 0.97 1.00 1.03
0.70 0.72 0.60 0.65 0.62 0.55 0.53 0.59 0.66 0.73 1.18 1.61 2.41 1.46 1.43 2.16 1.24 0.36 0.24 0.20 0.14 0.15 0.45 0.59 0.54 0.64 0.70 0.62 0.40 0.33 0.35 0.29 0.39 0.50 0.27 0.34 0.28 0.31 0.30 0.36 0.39 0.19 0.32 0.61 0.71 0.77 0.78

GFSGBSN_prec_precacc_105.txt.gz
Total_Precipitation_Accumulation
0.06 0.07 0.07 0.06 0.05 0.05 0.05 0.05 0.04 0.04 0.03 0.03 0.03 0.02 0.03 0.03 0.03 0.02 0.02 0.02 0.02 0.02 0.02 0.02 0.02 0.03 0.01 0.00 0.00 0.00 0.00 0.00 0.00 0.00 0.00 0.00 0.00 0.00 0.00 0.00 0.00 0.00 0.00 0.00 0.01 0.01 0.01
0.09 0.09 0.10 0.08 0.08 0.07 0.06 0.06 0.05 0.04 0.04 0.04 0.04 0.03 0.03 0.03 0.02 0.02 0.02 0.02 0.02 0.02 0.02 0.02 0.02 0.03 0.00 0.00 0.00 0.00 0.00 0.00 0.00 0.00 0.00 0.00 0.00 0.00 0.00 0.00 0.00 0.00 0.00 0.00 0.02 0.00 0.00
0.20 0.19 0.20 0.19 0.15 0.12 0.09 0.07 0.05 0.04 0.04 0.04 0.04 0.04 0.03 0.03 0.03 0.02 0.02 0.02 0.02 0.02 0.02 0.02 0.02 0.02 0.00 0.00 0.00 0.00 0.00 0.00 0.00 0.00 0.00 0.00 0.00 0.00 0.00 0.00 0.00 0.00 0.00 0.00 0.00 0.01 0.01
0.41 0.33 0.28 0.28 0.22 0.16 0.12 0.09 0.05 0.03 0.04 0.04 0.04 0.03 0.03 0.02 0.02 0.02 0.02 0.02 0.02 0.02 0.03 0.03 0.03 0.01 0.00 0.00 0.00 0.00 0.00 0.00 0.00 0.00 0.00 0.00 0.00 0.00 0.00 0.00 0.00 0.00 0.00 0.00 0.00 0.01 0.02
0.37 0.33 0.31 0.33 0.30 0.23 0.19 0.14 0.08 0.05 0.04 0.04 0.03 0.02 0.02 0.02 0.02 0.02 0.02 0.02 0.02 0.03 0.03 0.02 0.01 0.00 0.00 0.00 0.00 0.00 0.00 0.02 0.00 0.00 0.00 0.00 0.00 0.00 0.00 0.00 0.00 0.00 0.00 0.00 0.00 0.00 0.01
0.44 0.38 0.34 0.31 0.26 0.18 0.13 0.11 0.10 0.07 0.06 0.05 0.03 0.03 0.01 0.01 0.02 0.03 0.02 0.02 0.02 0.02 0.01 0.00 0.01 0.00 0.00 0.00 0.00 0.00 0.00 0.02 0.01 0.00 0.00 0.00 0.00 0.00 0.00 0.00 0.00 0.00 0.00 0.00 0.02 0.07 0.00
0.47 0.40 0.30 0.25 0.19 0.16 0.15 0.15 0.14 0.10 0.08 0.05 0.03 0.02 0.01 0.01 0.02 0.03 0.01 0.01 0.00 0.00 0.00 0.00 0.00 0.00 0.00 0.00 0.00 0.00 0.00 0.00 0.00 0.00 0.02 0.00 0.00 0.00 0.00 0.00 0.00 0.00 0.00 0.00 0.00 0.00 0.00
0.46 0.44 0.38 0.36 0.32 0.28 0.26 0.24 0.21 0.18 0.14 0.09 0.05 0.02 0.01 0.01 0.04 0.03 0.00 0.00 0.00 0.00 0.01 0.00 0.00 0.00 0.00 0.00 0.00 0.00 0.00 0.03 0.02 0.03 0.02 0.02 0.01 0.00 0.00 0.00 0.00 0.00 0.00 0.00 0.00 0.00 0.00
0.49 0.44 0.34 0.29 0.26 0.23 0.20 0.20 0.17 0.15 0.14 0.11 0.06 0.02 0.02 0.04 0.05 0.01 0.00 0.00 0.00 0.00 0.01 0.00 0.00 0.00 0.00 0.00 0.00 0.00 0.00 0.01 0.03 0.02 0.03 0.03 0.02 0.00 0.00 0.00 0.00 0.00 0.00 0.00 0.00 0.00 0.00
0.45 0.42 0.41 0.40 0.34 0.28 0.23 0.19 0.15 0.12 0.13 0.08 0.05 0.03 0.04 0.06 0.02 0.00 0.00 0.00 0.00 0.00 0.01 0.00 0.00 0.00 0.00 0.00 0.00 0.00 0.00 0.00 0.01 0.01 0.06 0.09 0.00 0.01 0.01 0.00 0.00 0.00 0.00 0.00 0.00 0.00 0.00
0.48 0.47 0.43 0.41 0.35 0.30 0.26 0.25 0.22 0.17 0.14 0.10 0.06 0.05 0.06 0.08 0.02 0.01 0.00 0.00 0.00 0.03 0.02 0.00 0.00 0.00 0.00 0.00 0.00 0.00 0.00 0.00 0.01 0.02 0.08 0.10 0.01 0.01 0.00 0.00 0.00 0.01 0.00 0.00 0.00 0.00 0.05
0.47 0.39 0.36 0.39 0.35 0.29 0.24 0.22 0.18 0.15 0.12 0.09 0.08 0.08 0.13 0.08 0.04 0.01 0.00 0.01 0.05 0.11 0.04 0.00 0.00 0.00 0.00 0.00 0.00 0.00 0.00 0.00 0.02 0.14 0.06 0.01 0.01 0.05 0.02 0.00 0.00 0.00 0.02 0.04 0.03 0.04 0.07
0.51 0.40 0.35 0.35 0.31 0.28 0.25 0.21 0.17 0.16 0.15 0.13 0.13 0.15 0.17 0.06 0.03 0.00 0.01 0.10 0.16 0.07 0.00 0.00 0.00 0.00 0.00 0.00 0.00 0.00 0.00 0.00 0.02 0.12 0.09 0.03 0.04 0.03 0.00 0.01 0.01 0.01 0.12 0.26 0.27 0.11 0.05
0.69 0.54 0.46 0.40 0.34 0.31 0.30 0.24 0.17 0.17 0.17 0.17 0.18 0.21 0.12 0.06 0.03 0.04 0.16 0.31 0.12 0.00 0.00 0.00 0.00 0.00 0.00 0.01 0.01 0.01 0.02 0.00 0.00 0.03 0.12 0.17 0.12 0.03 0.06 0.04 0.05 0.05 0.18 0.28 0.35 0.16 0.07
0.85 0.78 0.62 0.46 0.33 0.31 0.29 0.23 0.22 0.25 0.28 0.28 0.38 0.27 0.21 0.05 0.04 0.16 0.55 0.44 0.04 0.00 0.00 0.00 0.00 0.01 0.03 0.07 0.08 0.03 0.04 0.04 0.02 0.09 0.24 0.16 0.09 0.03 0.04 0.04 0.12 0.22 0.18 0.09 0.37 0.27 0.27
1.03 0.90 0.80 0.62 0.50 0.36 0.30 0.27 0.25 0.28 0.34 0.47 0.47 0.40 0.14 0.04 0.16 0.53 0.95 0.30 0.01 0.02 0.00 0.00 0.01 0.05 0.09 0.05 0.09 0.13 0.10 0.20 0.13 0.21 0.17 0.25 0.42 0.09 0.05 0.13 0.15 0.22 0.22 0.43 0.56 0.52 0.33
1.08 0.91 0.78 0.65 0.52 0.44 0.38 0.35 0.34 0.30 0.44 0.73 0.86 0.81 0.15 0.09 0.64 1.13 0.87 0.13 0.00 0.00 0.00 0.00 0.01 0.07 0.09 0.10 0.11 0.16 0.30 0.31 0.44 0.18 0.12 0.11 0.28 0.20 0.22 0.25 0.16 0.22 0.40 0.45 0.42 0.17 0.26
1.00 0.87 0.82 0.73 0.57 0.54 0.42 0.47 0.55 0.49 0.69 1.18 1.37 1.00 0.28 0.38 0.92 0.64 0.30 0.06 0.01 0.00 0.00 0.00 0.00 0.03 0.12 0.12 0.14 0.19 0.31 0.33 0.34 0.18 0.08 0.11 0.43 0.24 0.16 0.08 0.04 0.18 0.27 0.40 0.50 0.28 0.17
1.19 0.90 0.76 0.89 0.78 0.75 0.66 0.60 0.65 0.62 0.99 1.47 1.81 0.96 0.82 0.86 0.93 0.41 0.19 0.05 0.02 0.00 0.01 0.01 0.02 0.03 0.07 0.10 0.21 0.13 0.31 0.35 0.52 0.32 0.13 0.36 0.40 0.45 0.38 0.25 0.17 0.35 0.41 0.34 0.52 0.59 0.54
1.21 0.98 0.74 0.75 0.78 0.87 0.82 0.76 0.76 0.81 1.09 1.85 2.45 1.70 1.77 1.25 0.63 0.36 0.32 0.14 0.04 0.00 0.00 0.03 0.02 0.05 0.10 0.13 0.17 0.17 0.26 0.48 0.76 0.54 0.24 0.65 0.41 0.55 0.32 0.32 0.57 0.56 0.49 0.56 0.63 0.77 0.42
1.00 0.92 0.76 0.73 0.73 0.81 0.94 1.00 1.00 1.11 1.30 2.79 3.20 1.27 0.81 0.81 0.46 0.38 0.49 0.46 0.19 0.10 0.07 0.03 0.07 0.13 0.17 0.17 0.11 0.09 0.29 0.74 0.96 0.70 0.38 0.61 0.40 0.71 0.52 0.16 0.19 0.33 0.48 0.49 0.64 0.55 0.47
0.77 0.68 0.64 0.63 0.76 0.93 0.92 1.07 1.18 1.50 1.94 4.14 3.40 0.56 0.39 0.43 0.43 0.71 0.50 0.40 0.31 0.28 0.34 0.20 0.19 0.08 0.09 0.11 0.10 0.17 0.30 0.41 0.69 0.51 0.52 0.60 0.52 0.80 0.98 0.33 0.34 0.52 0.65 0.38 0.46 0.41 0.35
0.67 0.65 0.65 0.58 0.68 0.88 0.90 0.96 1.19 1.71 3.05 5.34 2.99 0.40 0.52 0.36 0.21 0.54 0.55 0.40 0.50 0.73 0.37 0.15 0.31 0.18 0.12 0.18 0.12 0.06 0.12 0.13 0.19 0.40 0.57 0.63 0.89 0.83 0.88 0.29 0.31 0.62 0.60 0.41 0.24 0.17 0.09
0.63 0.71 0.67 0.69 0.65 0.83 0.81 0.86 1.10 1.88 2.82 3.24 1.80 0.56 0.83 0.64 0.23 0.14 0.10 0.23 0.37 0.52 1.16 0.34 0.22 0.23 0.20 0.12 0.14 0.15 0.09 0.05 0.09 0.12 0.40 0.64 0.55 0.50 0.54 0.27 0.45 0.62 0.29 0.35 0.41 0.31 0.12
0.82 0.80 0.83 0.91 0.84 0.91 0.90 0.90 1.01 1.51 2.03 2.19 1.67 0.89 0.85 0.61 0.18 0.09 0.04 0.09 0.16 0.50 0.64 0.81 0.57 0.37 0.18 0.14 0.34 0.42 0.40 0.40 0.13 0.08 0.18 0.35 0.33 0.44 0.36 0.28 0.38 0.21 0.27 0.35 0.70 0.65 0.34
0.96 0.87 0.87 0.94 0.97 1.01 0.98 0.89 0.88 1.09 1.74 2.18 2.10 1.48 1.53 1.09 0.28 0.06 0.06 0.05 0.11 0.32 0.28 0.34 0.62 0.50 0.35 0.25 0.55 0.65 0.48 0.52 0.25 0.12 0.03 0.10 0.26 0.48 0.33 0.29 0.26 0.15 0.11 0.26 0.50 1.11 0.96
0.76 0.76 0.68 0.74 0.86 0.85 0.87 0.85 0.76 0.79 1.28 2.21 2.65 1.56 2.43 1.96 0.35 0.23 0.24 0.16 0.10 0.19 0.25 0.23 0.27 0.24 0.21 0.43 0.54 0.34 0.28 0.19 0.33 0.37 0.17 0.09 0.20 0.30 0.35 0.36 0.11 0.04 0.06 0.19 0.95 1.10 1.06
0.71 0.79 0.66 0.69 0.66 0.57 0.68 0.72 0.65 0.73 1.12 1.87 2.72 1.39 2.08 2.20 0.57 0.25 0.27 0.26 0.14 0.22 0.44 0.36 0.64 0.44 0.46 0.46 0.26 0.17 0.29 0.43 0.44 0.35 0.28 0.27 0.40 0.33 0.35 0.42 0.20 0.13 0.28 0.65 0.98 1.02 1.04
0.70 0.72 0.60 0.65 0.62 0.55 0.53 0.59 0.66 0.73 1.18 1.61 2.41 1.46 1.43 2.16 1.24 0.36 0.24 0.20 0.14 0.15 0.45 0.59 0.54 0.64 0.70 0.62 0.40 0.33 0.35 0.30 0.39 0.50 0.27 0.34 0.28 0.31 0.31 0.37 0.40 0.20 0.33 0.63 0.71 0.77 0.79

GFSGBSN_prec_precacc_108.txt.gz
Total_Precipitation_Accumulation
0.06 0.07 0.07 0.06 0.05 0.05 0.05 0.05 0.04 0.04 0.03 0.03 0.03 0.02 0.03 0.03 0.03 0.02 0.02 0.02 0.02 0.02 0.02 0.02 0.02 0.03 0.01 0.00 0.00 0.00 0.00 0.00 0.00 0.00 0.00 0.00 0.00 0.00 0.00 0.00 0.00 0.00 0.00 0.00 0.01 0.01 0.01
0.09 0.09 0.10 0.08 0.08 0.07 0.06 0.06 0.05 0.04 0.04 0.04 0.04 0.03 0.03 0.03 0.02 0.02 0.02 0.02 0.02 0.02 0.02 0.02 0.02 0.03 0.00 0.00 0.00 0.00 0.00 0.00 0.00 0.00 0.00 0.00 0.00 0.00 0.00 0.00 0.00 0.00 0.00 0.00 0.02 0.00 0.00
0.22 0.20 0.20 0.19 0.15 0.12 0.09 0.07 0.05 0.04 0.04 0.04 0.04 0.04 0.03 0.03 0.03 0.02 0.02 0.02 0.02 0.02 0.02 0.02 0.02 0.02 0.00 0.00 0.00 0.00 0.00 0.00 0.00 0.00 0.00 0.00 0.00 0.00 0.00 0.00 0.00 0.00 0.00 0.00 0.00 0.01 0.01
0.43 0.38 0.34 0.32 0.26 0.19 0.14 0.10 0.06 0.04 0.04 0.04 0.04 0.03 0.03 0.02 0.02 0.02 0.02 0.02 0.02 0.02 0.03 0.03 0.03 0.01 0.00 0.00 0.00 0.00 0.00 0.00 0.00 0.00 0.00 0.00 0.00 0.00 0.00 0.00 0.00 0.00 0.00 0.00 0.00 0.01 0.02
0.39 0.35 0.33 0.35 0.33 0.30 0.25 0.22 0.15 0.10 0.07 0.06 0.04 0.02 0.02 0.02 0.02 0.02 0.02 0.02 0.02 0.03 0.03 0.02 0.01 0.00 0.00 0.00 0.00 0.00 0.00 0.02 0.00 0.00 0.00 0.00 0.00 0.00 0.00 0.00 0.00 0.00 0.00 0.00 0.00 0.00 0.01
0.46 0.40 0.37 0.34 0.30 0.25 0.19 0.18 0.16 0.12 0.09 0.07 0.04 0.03 0.01 0.01 0.02 0.03 0.02 0.02 0.02 0.02 0.01 0.00 0.01 0.00 0.00 0.00 0.00 0.00 0.00 0.02 0.01 0.00 0.00 0.00 0.00 0.00 0.00 0.00 0.00 0.00 0.00 0.00 0.02 0.07 0.00
0.48 0.42 0.32 0.28 0.22 0.19 0.17 0.17 0.15 0.12 0.11 0.08 0.05 0.04 0.02 0.02 0.03 0.03 0.01 0.01 0.00 0.00 0.00 0.00 0.00 0.00 0.00 0.00 0.00 0.00 0.00 0.00 0.00 0.00 0.02 0.00 0.00 0.00 0.00 0.00 0.00 0.00 0.00 0.00 0.00 0.00 0.00
0.47 0.45 0.38 0.38 0.36 0.34 0.31 0.29 0.25 0.20 0.15 0.12 0.11 0.08 0.04 0.02 0.04 0.03 0.00 0.00 0.00 0.00 0.01 0.00 0.00 0.00 0.00 0.00 0.00 0.00 0.00 0.03 0.02 0.03 0.02 0.02 0.01 0.00 0.00 0.00 0.00 0.00 0.00 0.00 0.00 0.00 0.00
0.50 0.45 0.35 0.30 0.28 0.25 0.23 0.24 0.20 0.17 0.17 0.17 0.14 0.10 0.07 0.05 0.05 0.01 0.00 0.00 0.00 0.00 0.01 0.00 0.00 0.00 0.00 0.00 0.00 0.00 0.00 0.01 0.03 0.02 0.03 0.03 0.02 0.00 0.00 0.00 0.00 0.00 0.00 0.00 0.00 0.00 0.00
0.46 0.43 0.41 0.40 0.35 0.30 0.25 0.23 0.19 0.17 0.21 0.21 0.21 0.19 0.15 0.08 0.02 0.00 0.00 0.00 0.00 0.00 0.01 0.00 0.00 0.00 0.00 0.00 0.00 0.00 0.00 0.00 0.01 0.01 0.06 0.09 0.00 0.01 0.01 0.00 0.00 0.00 0.00 0.00 0.00 0.00 0.00
0.49 0.47 0.44 0.42 0.37 0.32 0.31 0.34 0.31 0.24 0.20 0.18 0.17 0.17 0.14 0.10 0.02 0.01 0.00 0.00 0.00 0.03 0.02 0.00 0.00 0.00 0.00 0.00 0.00 0.00 0.00 0.00 0.01 0.02 0.08 0.10 0.01 0.01 0.00 0.00 0.00 0.01 0.00 0.00 0.00 0.00 0.05
0.47 0.40 0.37 0.40 0.37 0.32 0.30 0.30 0.24 0.17 0.14 0.14 0.15 0.13 0.17 0.09 0.04 0.01 0.00 0.01 0.05 0.11 0.04 0.00 0.00 0.00 0.00 0.00 0.00 0.00 0.00 0.00 0.02 0.14 0.06 0.01 0.01 0.05 0.02 0.00 0.00 0.00 0.02 0.04 0.03 0.04 0.07
0.51 0.40 0.37 0.37 0.33 0.32 0.29 0.25 0.21 0.20 0.19 0.17 0.15 0.16 0.18 0.06 0.03 0.00 0.01 0.10 0.17 0.08 0.00 0.00 0.00 0.00 0.00 0.00 0.00 0.00 0.00 0.00 0.02 0.12 0.09 0.03 0.04 0.03 0.00 0.01 0.01 0.01 0.12 0.26 0.27 0.11 0.05
0.69 0.54 0.47 0.43 0.37 0.34 0.33 0.29 0.23 0.22 0.21 0.21 0.20 0.23 0.13 0.07 0.03 0.04 0.16 0.33 0.14 0.01 0.00 0.00 0.00 0.00 0.00 0.01 0.01 0.01 0.02 0.00 0.00 0.03 0.12 0.17 0.12 0.03 0.06 0.04 0.05 0.05 0.18 0.28 0.35 0.16 0.07
0.86 0.79 0.64 0.47 0.36 0.33 0.32 0.28 0.27 0.29 0.32 0.30 0.39 0.28 0.21 0.05 0.04 0.16 0.55 0.44 0.04 0.01 0.00 0.00 0.00 0.01 0.03 0.07 0.08 0.03 0.04 0.04 0.02 0.09 0.24 0.16 0.09 0.03 0.04 0.04 0.12 0.22 0.18 0.09 0.37 0.27 0.27
1.04 0.92 0.82 0.65 0.53 0.42 0.34 0.31 0.29 0.31 0.37 0.48 0.48 0.41 0.14 0.04 0.16 0.53 0.95 0.30 0.01 0.02 0.00 0.00 0.01 0.05 0.09 0.05 0.09 0.13 0.10 0.20 0.13 0.21 0.17 0.25 0.42 0.09 0.05 0.13 0.15 0.22 0.22 0.44 0.58 0.54 0.33
1.09 0.93 0.83 0.71 0.57 0.51 0.43 0.37 0.36 0.33 0.47 0.75 0.86 0.81 0.15 0.09 0.64 1.13 0.87 0.13 0.00 0.00 0.00 0.00 0.01 0.07 0.09 0.10 0.11 0.16 0.30 0.31 0.44 0.18 0.12 0.11 0.29 0.20 0.22 0.25 0.16 0.22 0.41 0.50 0.46 0.18 0.27
1.06 0.95 0.91 0.82 0.65 0.59 0.46 0.51 0.58 0.50 0.69 1.19 1.37 1.00 0.28 0.38 0.92 0.64 0.30 0.06 0.01 0.00 0.00 0.00 0.00 0.03 0.12 0.12 0.14 0.19 0.31 0.33 0.34 0.18 0.08 0.11 0.43 0.24 0.16 0.08 0.04 0.18 0.27 0.46 0.69 0.34 0.19
1.29 1.01 0.87 1.01 0.90 0.85 0.73 0.64 0.69 0.64 1.00 1.48 1.81 0.96 0.82 0.86 0.93 0.41 0.19 0.05 0.02 0.00 0.01 0.01 0.02 0.03 0.07 0.10 0.21 0.13 0.31 0.35 0.52 0.32 0.13 0.36 0.41 0.45 0.38 0.30 0.18 0.35 0.45 0.39 0.67 0.70 0.59
1.31 1.09 0.83 0.83 0.87 0.96 0.91 0.82 0.78 0.82 1.10 1.85 2.45 1.70 1.77 1.25 0.63 0.36 0.32 0.14 0.04 0.00 0.00 0.03 0.02 0.05 0.10 0.13 0.17 0.17 0.26 0.48 0.76 0.54 0.24 0.65 0.41 0.55 0.32 0.32 0.57 0.58 0.53 0.62 0.70 0.82 0.47
1.21 1.12 0.92 0.84 0.83 0.93 1.00 1.05 1.03 1.12 1.30 2.79 3.20 1.27 0.81 0.81 0.46 0.38 0.49 0.46 0.19 0.10 0.07 0.03 0.07 0.13 0.17 0.17 0.11 0.09 0.29 0.74 0.96 0.70 0.38 0.61 0.41 0.71 0.52 0.16 0.24 0.47 0.58 0.56 0.82 0.61 0.52
1.01 0.87 0.83 0.80 0.88 1.01 0.96 1.08 1.19 1.50 1.94 4.14 3.40 0.56 0.39 0.43 0.43 0.71 0.50 0.40 0.31 0.28 0.34 0.20 0.19 0.08 0.09 0.11 0.10 0.17 0.31 0.41 0.69 0.51 0.52 0.63 0.55 0.84 1.01 0.35 0.44 0.58 0.72 0.40 0.55 0.49 0.43
0.85 0.77 0.78 0.70 0.76 0.91 0.91 0.96 1.19 1.71 3.05 5.34 2.99 0.40 0.52 0.36 0.21 0.54 0.55 0.40 0.50 0.73 0.37 0.15 0.31 0.18 0.12 0.18 0.12 0.06 0.13 0.13 0.19 0.41 0.61 0.70 1.03 0.94 1.00 0.30 0.32 0.63 0.64 0.47 0.28 0.20 0.12
0.75 0.78 0.71 0.72 0.66 0.83 0.81 0.86 1.10 1.88 2.82 3.24 1.80 0.56 0.83 0.64 0.23 0.14 0.10 0.23 0.37 0.52 1.16 0.34 0.22 0.23 0.20 0.12 0.14 0.15 0.09 0.05 0.09 0.14 0.53 0.82 0.72 0.63 0.65 0.30 0.46 0.63 0.32 0.37 0.43 0.31 0.13
0.86 0.81 0.83 0.91 0.84 0.91 0.90 0.90 1.01 1.51 2.03 2.19 1.67 0.89 0.85 0.61 0.18 0.09 0.04 0.09 0.16 0.50 0.64 0.81 0.57 0.37 0.18 0.14 0.34 0.42 0.40 0.41 0.13 0.14 0.32 0.52 0.49 0.59 0.49 0.32 0.40 0.23 0.28 0.35 0.72 0.66 0.35
0.97 0.88 0.87 0.94 0.97 1.01 0.98 0.89 0.88 1.09 1.74 2.18 2.10 1.48 1.53 1.09 0.28 0.06 0.06 0.05 0.11 0.32 0.28 0.34 0.62 0.50 0.35 0.25 0.55 0.66 0.49 0.53 0.26 0.14 0.05 0.14 0.37 0.58 0.35 0.30 0.26 0.16 0.11 0.26 0.51 1.12 0.96
0.78 0.76 0.68 0.74 0.86 0.85 0.87 0.85 0.76 0.79 1.28 2.21 2.65 1.56 2.43 1.96 0.35 0.23 0.24 0.16 0.10 0.19 0.25 0.23 0.27 0.24 0.21 0.43 0.54 0.34 0.29 0.20 0.33 0.37 0.20 0.16 0.34 0.34 0.36 0.36 0.12 0.04 0.06 0.20 0.96 1.10 1.06
0.72 0.79 0.67 0.69 0.66 0.57 0.68 0.72 0.65 0.73 1.12 1.87 2.72 1.39 2.08 2.20 0.57 0.25 0.27 0.26 0.14 0.22 0.44 0.36 0.64 0.44 0.46 0.46 0.26 0.17 0.29 0.44 0.44 0.35 0.29 0.29 0.47 0.36 0.35 0.42 0.20 0.13 0.28 0.65 0.98 1.02 1.04
0.71 0.72 0.60 0.65 0.62 0.55 0.53 0.59 0.66 0.73 1.18 1.61 2.41 1.46 1.43 2.16 1.24 0.36 0.24 0.20 0.14 0.15 0.45 0.59 0.54 0.64 0.70 0.62 0.41 0.33 0.35 0.30 0.40 0.50 0.27 0.35 0.29 0.31 0.31 0.37 0.41 0.20 0.35 0.64 0.71 0.78 0.79

GFSGBSN_prec_precacc_111.txt.gz
Total_Precipitation_Accumulation
0.06 0.07 0.07 0.06 0.05 0.05 0.05 0.05 0.04 0.04 0.03 0.03 0.03 0.02 0.03 0.03 0.03 0.02 0.02 0.02 0.02 0.02 0.02 0.02 0.02 0.03 0.01 0.00 0.00 0.00 0.00 0.00 0.00 0.00 0.00 0.00 0.00 0.00 0.00 0.00 0.00 0.00 0.00 0.00 0.01 0.01 0.01
0.10 0.09 0.10 0.08 0.08 0.07 0.06 0.06 0.05 0.04 0.04 0.04 0.04 0.03 0.03 0.03 0.02 0.02 0.02 0.02 0.02 0.02 0.02 0.02 0.02 0.03 0.00 0.00 0.00 0.00 0.00 0.00 0.00 0.00 0.00 0.00 0.00 0.00 0.00 0.00 0.00 0.00 0.00 0.00 0.02 0.00 0.00
0.26 0.22 0.21 0.19 0.15 0.12 0.09 0.07 0.05 0.04 0.04 0.05 0.04 0.04 0.03 0.03 0.03 0.02 0.02 0.02 0.02 0.02 0.02 0.02 0.02 0.02 0.00 0.00 0.00 0.00 0.00 0.00 0.00 0.00 0.00 0.00 0.00 0.00 0.00 0.00 0.00 0.00 0.00 0.00 0.00 0.01 0.01
0.46 0.42 0.38 0.35 0.28 0.20 0.16 0.12 0.07 0.05 0.04 0.04 0.04 0.04 0.03 0.02 0.02 0.02 0.02 0.02 0.02 0.02 0.03 0.03 0.03 0.01 0.00 0.00 0.00 0.00 0.00 0.00 0.00 0.00 0.00 0.00 0.00 0.00 0.00 0.00 0.00 0.00 0.00 0.00 0.00 0.01 0.02
0.40 0.36 0.34 0.36 0.35 0.31 0.28 0.27 0.21 0.17 0.12 0.09 0.07 0.06 0.04 0.03 0.02 0.02 0.02 0.02 0.02 0.03 0.03 0.02 0.01 0.00 0.00 0.00 0.00 0.00 0.00 0.02 0.00 0.00 0.00 0.00 0.00 0.00 0.00 0.00 0.00 0.00 0.00 0.00 0.00 0.00 0.01
0.47 0.41 0.38 0.36 0.32 0.27 0.22 0.20 0.19 0.16 0.15 0.12 0.08 0.08 0.03 0.02 0.02 0.03 0.02 0.02 0.02 0.02 0.01 0.00 0.01 0.00 0.00 0.00 0.00 0.00 0.00 0.02 0.01 0.00 0.00 0.00 0.00 0.00 0.00 0.00 0.00 0.00 0.00 0.00 0.02 0.07 0.00
0.49 0.43 0.32 0.29 0.24 0.22 0.20 0.19 0.16 0.13 0.13 0.11 0.11 0.09 0.06 0.04 0.04 0.04 0.01 0.01 0.00 0.00 0.00 0.00 0.00 0.00 0.00 0.00 0.00 0.00 0.00 0.00 0.00 0.00 0.02 0.00 0.00 0.00 0.00 0.00 0.00 0.00 0.00 0.00 0.00 0.00 0.00
0.47 0.46 0.39 0.39 0.37 0.35 0.33 0.31 0.26 0.21 0.16 0.14 0.14 0.12 0.09 0.06 0.06 0.04 0.00 0.00 0.00 0.00 0.01 0.00 0.00 0.00 0.00 0.00 0.00 0.00 0.00 0.03 0.02 0.03 0.02 0.02 0.01 0.00 0.00 0.00 0.00 0.00 0.00 0.00 0.00 0.00 0.00
0.51 0.45 0.36 0.31 0.29 0.26 0.24 0.26 0.23 0.19 0.19 0.19 0.19 0.15 0.11 0.09 0.07 0.02 0.00 0.00 0.00 0.00 0.01 0.00 0.00 0.00 0.00 0.00 0.00 0.00 0.00 0.01 0.03 0.02 0.03 0.03 0.02 0.00 0.00 0.00 0.00 0.00 0.00 0.00 0.00 0.00 0.00
0.47 0.44 0.42 0.41 0.36 0.31 0.26 0.23 0.19 0.18 0.23 0.27 0.27 0.25 0.23 0.17 0.05 0.00 0.00 0.00 0.00 0.00 0.02 0.00 0.00 0.00 0.00 0.00 0.00 0.00 0.00 0.00 0.01 0.01 0.06 0.09 0.00 0.01 0.01 0.00 0.00 0.00 0.00 0.00 0.00 0.00 0.00
0.49 0.48 0.45 0.42 0.38 0.33 0.32 0.35 0.33 0.27 0.24 0.23 0.22 0.20 0.19 0.14 0.05 0.03 0.02 0.00 0.00 0.03 0.03 0.00 0.00 0.00 0.00 0.00 0.00 0.00 0.00 0.00 0.01 0.02 0.08 0.10 0.01 0.01 0.00 0.00 0.00 0.01 0.00 0.00 0.00 0.00 0.05
0.47 0.40 0.38 0.41 0.38 0.34 0.31 0.32 0.27 0.23 0.21 0.21 0.21 0.18 0.20 0.10 0.05 0.01 0.00 0.01 0.05 0.12 0.05 0.00 0.00 0.00 0.00 0.00 0.00 0.00 0.00 0.00 0.02 0.14 0.06 0.01 0.01 0.05 0.02 0.00 0.00 0.00 0.02 0.04 0.03 0.04 0.07
0.52 0.40 0.37 0.37 0.34 0.34 0.31 0.27 0.25 0.26 0.24 0.23 0.21 0.21 0.21 0.08 0.04 0.01 0.01 0.11 0.19 0.09 0.00 0.00 0.00 0.00 0.00 0.00 0.00 0.00 0.00 0.00 0.02 0.12 0.09 0.03 0.04 0.03 0.00 0.01 0.01 0.01 0.12 0.26 0.27 0.11 0.05
0.69 0.54 0.47 0.43 0.37 0.35 0.36 0.32 0.26 0.25 0.27 0.29 0.28 0.27 0.14 0.07 0.03 0.04 0.16 0.35 0.18 0.04 0.02 0.01 0.00 0.00 0.00 0.01 0.01 0.01 0.02 0.00 0.00 0.03 0.12 0.17 0.12 0.03 0.06 0.04 0.05 0.05 0.18 0.28 0.35 0.16 0.07
0.86 0.80 0.64 0.48 0.36 0.35 0.35 0.32 0.32 0.36 0.39 0.35 0.44 0.31 0.24 0.06 0.04 0.16 0.55 0.45 0.05 0.01 0.00 0.00 0.00 0.01 0.03 0.07 0.08 0.03 0.04 0.04 0.02 0.09 0.24 0.16 0.09 0.03 0.04 0.04 0.12 0.22 0.18 0.09 0.37 0.27 0.27
1.04 0.92 0.82 0.65 0.54 0.44 0.40 0.37 0.35 0.37 0.41 0.53 0.53 0.46 0.17 0.05 0.17 0.53 0.95 0.30 0.01 0.02 0.00 0.00 0.01 0.05 0.09 0.05 0.09 0.13 0.10 0.20 0.13 0.21 0.17 0.25 0.42 0.09 0.05 0.13 0.15 0.22 0.22 0.44 0.59 0.54 0.34
1.09 0.93 0.83 0.72 0.59 0.54 0.50 0.45 0.41 0.36 0.48 0.77 0.90 0.88 0.20 0.10 0.64 1.13 0.87 0.13 0.00 0.00 0.00 0.00 0.01 0.07 0.09 0.10 0.11 0.16 0.30 0.31 0.44 0.18 0.12 0.11 0.29 0.20 0.22 0.25 0.16 0.22 0.41 0.51 0.48 0.18 0.28
1.07 0.96 0.92 0.83 0.68 0.64 0.52 0.58 0.62 0.53 0.72 1.22 1.41 1.04 0.29 0.39 0.92 0.64 0.30 0.06 0.01 0.00 0.00 0.00 0.00 0.03 0.12 0.12 0.14 0.19 0.31 0.33 0.34 0.18 0.08 0.11 0.43 0.24 0.16 0.08 0.04 0.18 0.27 0.49 0.73 0.38 0.24
1.29 1.02 0.89 1.04 0.95 0.91 0.78 0.68 0.73 0.66 1.01 1.49 1.83 1.00 0.82 0.86 0.93 0.41 0.19 0.05 0.02 0.00 0.01 0.01 0.02 0.04 0.07 0.10 0.21 0.13 0.31 0.35 0.52 0.32 0.13 0.36 0.41 0.45 0.39 0.31 0.18 0.35 0.45 0.43 0.74 0.77 0.63
1.33 1.13 0.88 0.90 0.95 1.04 0.96 0.84 0.81 0.84 1.10 1.85 2.46 1.73 1.79 1.25 0.63 0.36 0.33 0.14 0.04 0.00 0.01 0.03 0.02 0.05 0.10 0.13 0.17 0.17 0.26 0.48 0.76 0.54 0.24 0.65 0.41 0.55 0.32 0.32 0.57 0.58 0.53 0.64 0.74 0.86 0.48
1.28 1.20 1.00 0.94 0.92 1.00 1.04 1.08 1.07 1.15 1.32 2.79 3.21 1.28 0.82 0.82 0.46 0.38 0.49 0.46 0.19 0.10 0.07 0.03 0.07 0.13 0.17 0.17 0.11 0.09 0.29 0.74 0.96 0.70 0.38 0.61 0.41 0.71 0.52 0.16 0.25 0.51 0.62 0.60 0.90 0.63 0.55
1.15 1.01 0.95 0.92 0.97 1.10 1.05 1.14 1.24 1.53 1.95 4.15 3.40 0.56 0.39 0.43 0.43 0.71 0.50 0.40 0.31 0.28 0.34 0.20 0.19 0.08 0.09 0.11 0.10 0.17 0.31 0.41 0.69 0.51 0.53 0.64 0.56 0.85 1.01 0.36 0.47 0.62 0.79 0.48 0.68 0.55 0.47
1.04 0.93 0.91 0.81 0.86 1.01 1.06 1.06 1.25 1.73 3.05 5.34 3.00 0.40 0.52 0.36 0.21 0.54 0.55 0.40 0.50 0.73 0.37 0.15 0.31 0.18 0.12 0.18 0.12 0.06 0.13 0.13 0.19 0.41 0.62 0.72 1.07 0.98 1.04 0.31 0.34 0.66 0.69 0.54 0.40 0.23 0.14
1.04 0.99 0.88 0.86 0.79 0.94 0.93 0.94 1.12 1.89 2.82 3.24 1.80 0.56 0.83 0.64 0.23 0.14 0.10 0.23 0.37 0.52 1.16 0.34 0.22 0.23 0.20 0.12 0.14 0.15 0.09 0.05 0.09 0.14 0.59 0.91 0.80 0.68 0.73 0.39 0.51 0.66 0.34 0.38 0.44 0.32 0.13
1.22 1.06 1.01 1.04 0.93 0.96 0.96 0.96 1.03 1.51 2.03 2.19 1.67 0.89 0.85 0.61 0.18 0.09 0.04 0.09 0.16 0.50 0.64 0.81 0.57 0.37 0.18 0.14 0.34 0.42 0.41 0.41 0.14 0.16 0.39 0.67 0.62 0.63 0.58 0.37 0.42 0.25 0.28 0.36 0.72 0.66 0.35
1.22 1.04 0.97 0.98 0.99 1.03 0.99 0.90 0.88 1.09 1.74 2.18 2.10 1.48 1.53 1.09 0.28 0.06 0.06 0.05 0.11 0.32 0.28 0.34 0.62 0.50 0.35 0.25 0.55 0.66 0.49 0.53 0.27 0.15 0.06 0.19 0.49 0.62 0.38 0.31 0.27 0.16 0.11 0.26 0.51 1.12 0.97
0.85 0.79 0.69 0.75 0.86 0.85 0.87 0.85 0.76 0.79 1.28 2.21 2.65 1.56 2.43 1.96 0.35 0.23 0.24 0.16 0.10 0.19 0.25 0.23 0.27 0.24 0.21 0.43 0.54 0.34 0.29 0.20 0.33 0.37 0.22 0.21 0.44 0.39 0.37 0.36 0.12 0.04 0.06 0.20 0.96 1.11 1.07
0.73 0.80 0.67 0.69 0.66 0.57 0.68 0.72 0.65 0.73 1.12 1.87 2.72 1.39 2.08 2.20 0.57 0.25 0.27 0.26 0.14 0.22 0.44 0.36 0.64 0.44 0.46 0.46 0.26 0.17 0.29 0.44 0.44 0.35 0.31 0.36 0.58 0.45 0.37 0.42 0.20 0.14 0.28 0.66 0.98 1.02 1.04
0.71 0.72 0.60 0.65 0.62 0.55 0.53 0.59 0.66 0.73 1.18 1.61 2.41 1.46 1.43 2.16 1.24 0.36 0.24 0.20 0.14 0.15 0.45 0.59 0.54 0.64 0.70 0.62 0.41 0.33 0.35 0.30 0.40 0.50 0.27 0.37 0.35 0.34 0.32 0.37 0.42 0.22 0.35 0.65 0.71 0.78 0.79

GFSGBSN_prec_precacc_114.txt.gz
Total_Precipitation_Accumulation
0.21 0.16 0.11 0.06 0.05 0.05 0.05 0.05 0.04 0.04 0.03 0.03 0.03 0.02 0.03 0.03 0.03 0.02 0.02 0.02 0.02 0.02 0.02 0.02 0.02 0.03 0.01 0.00 0.00 0.00 0.00 0.00 0.00 0.00 0.00 0.00 0.00 0.00 0.00 0.00 0.00 0.00 0.00 0.00 0.01 0.01 0.01
0.18 0.15 0.13 0.11 0.09 0.07 0.06 0.06 0.05 0.04 0.04 0.04 0.04 0.03 0.03 0.03 0.02 0.02 0.02 0.02 0.02 0.02 0.02 0.02 0.02 0.03 0.00 0.00 0.00 0.00 0.00 0.00 0.00 0.00 0.00 0.00 0.00 0.00 0.00 0.00 0.00 0.00 0.00 0.00 0.02 0.00 0.00
0.27 0.25 0.24 0.22 0.18 0.14 0.10 0.08 0.06 0.04 0.04 0.05 0.05 0.04 0.03 0.03 0.03 0.02 0.02 0.02 0.02 0.02 0.02 0.02 0.02 0.02 0.00 0.00 0.00 0.00 0.00 0.00 0.00 0.00 0.00 0.00 0.00 0.00 0.00 0.00 0.00 0.00 0.00 0.00 0.00 0.01 0.01
0.46 0.42 0.38 0.37 0.31 0.23 0.19 0.16 0.11 0.07 0.06 0.05 0.06 0.05 0.03 0.02 0.03 0.02 0.02 0.02 0.02 0.02 0.03 0.03 0.03 0.01 0.00 0.00 0.00 0.00 0.00 0.00 0.00 0.00 0.00 0.00 0.00 0.00 0.00 0.00 0.00 0.00 0.00 0.00 0.00 0.01 0.02
0.40 0.36 0.34 0.37 0.35 0.32 0.29 0.28 0.26 0.21 0.17 0.14 0.12 0.13 0.09 0.06 0.04 0.03 0.02 0.02 0.02 0.03 0.03 0.02 0.01 0.00 0.00 0.00 0.00 0.00 0.00 0.02 0.00 0.00 0.00 0.00 0.00 0.00 0.00 0.00 0.00 0.00 0.00 0.00 0.00 0.00 0.01
0.47 0.41 0.39 0.37 0.32 0.28 0.22 0.21 0.20 0.19 0.21 0.22 0.18 0.16 0.12 0.08 0.04 0.03 0.02 0.02 0.02 0.02 0.01 0.00 0.01 0.00 0.00 0.00 0.00 0.00 0.00 0.02 0.01 0.00 0.00 0.00 0.00 0.00 0.00 0.00 0.00 0.00 0.00 0.00 0.02 0.07 0.00
0.49 0.43 0.32 0.29 0.24 0.22 0.21 0.20 0.17 0.14 0.15 0.14 0.16 0.17 0.15 0.12 0.07 0.05 0.02 0.01 0.00 0.00 0.00 0.00 0.00 0.00 0.00 0.00 0.00 0.00 0.00 0.00 0.00 0.00 0.02 0.00 0.00 0.00 0.00 0.00 0.00 0.00 0.00 0.00 0.00 0.00 0.00
0.48 0.46 0.40 0.39 0.38 0.36 0.34 0.32 0.27 0.22 0.17 0.14 0.16 0.16 0.12 0.09 0.08 0.04 0.01 0.00 0.00 0.00 0.01 0.00 0.00 0.00 0.00 0.00 0.00 0.00 0.00 0.03 0.02 0.03 0.02 0.02 0.01 0.00 0.00 0.00 0.00 0.00 0.00 0.00 0.00 0.00 0.00
0.51 0.46 0.37 0.32 0.30 0.27 0.26 0.28 0.25 0.21 0.19 0.20 0.20 0.19 0.13 0.10 0.07 0.02 0.00 0.00 0.00 0.00 0.01 0.00 0.00 0.00 0.00 0.00 0.00 0.00 0.00 0.01 0.03 0.02 0.03 0.03 0.02 0.00 0.00 0.00 0.00 0.00 0.00 0.00 0.00 0.00 0.00
0.47 0.44 0.42 0.41 0.37 0.31 0.27 0.24 0.21 0.21 0.25 0.28 0.31 0.29 0.24 0.18 0.05 0.00 0.00 0.00 0.00 0.00 0.04 0.00 0.00 0.00 0.00 0.00 0.00 0.00 0.00 0.00 0.01 0.01 0.06 0.09 0.00 0.01 0.01 0.00 0.00 0.00 0.00 0.00 0.00 0.00 0.00
0.50 0.48 0.45 0.42 0.38 0.33 0.33 0.37 0.35 0.31 0.27 0.27 0.27 0.23 0.20 0.15 0.05 0.03 0.02 0.01 0.00 0.04 0.09 0.00 0.00 0.00 0.00 0.00 0.00 0.00 0.00 0.00 0.01 0.02 0.08 0.10 0.01 0.01 0.00 0.00 0.00 0.01 0.00 0.00 0.00 0.00 0.05
0.48 0.40 0.38 0.41 0.38 0.34 0.31 0.32 0.28 0.26 0.24 0.24 0.25 0.21 0.23 0.11 0.05 0.02 0.01 0.01 0.05 0.13 0.06 0.00 0.00 0.00 0.00 0.00 0.00 0.00 0.00 0.00 0.02 0.14 0.06 0.01 0.01 0.05 0.02 0.00 0.00 0.00 0.02 0.04 0.03 0.04 0.07
0.52 0.41 0.37 0.37 0.34 0.34 0.31 0.27 0.26 0.29 0.29 0.26 0.25 0.25 0.23 0.09 0.06 0.01 0.01 0.11 0.20 0.09 0.00 0.00 0.00 0.00 0.00 0.00 0.00 0.00 0.00 0.00 0.02 0.12 0.09 0.03 0.04 0.03 0.00 0.01 0.01 0.01 0.12 0.26 0.27 0.11 0.05
0.69 0.55 0.48 0.43 0.37 0.35 0.36 0.32 0.27 0.32 0.40 0.35 0.33 0.32 0.18 0.09 0.05 0.06 0.18 0.38 0.21 0.04 0.02 0.01 0.00 0.00 0.00 0.01 0.01 0.01 0.02 0.00 0.00 0.03 0.12 0.17 0.12 0.03 0.06 0.04 0.05 0.05 0.18 0.28 0.35 0.16 0.07
0.86 0.80 0.64 0.48 0.37 0.35 0.35 0.32 0.34 0.45 0.56 0.46 0.51 0.36 0.27 0.07 0.05 0.16 0.57 0.48 0.05 0.01 0.00 0.00 0.00 0.01 0.03 0.07 0.08 0.03 0.04 0.04 0.02 0.09 0.24 0.16 0.09 0.03 0.04 0.04 0.12 0.22 0.18 0.09 0.37 0.27 0.27
1.04 0.92 0.82 0.66 0.55 0.44 0.40 0.38 0.42 0.48 0.50 0.57 0.55 0.49 0.22 0.08 0.18 0.54 0.98 0.31 0.01 0.02 0.00 0.00 0.01 0.05 0.09 0.05 0.09 0.13 0.10 0.20 0.13 0.21 0.17 0.25 0.42 0.09 0.05 0.13 0.15 0.22 0.22 0.45 0.59 0.54 0.34
1.09 0.94 0.83 0.72 0.59 0.54 0.50 0.48 0.50 0.45 0.52 0.81 0.94 0.96 0.25 0.12 0.67 1.19 0.91 0.14 0.00 0.00 0.00 0.00 0.02 0.07 0.09 0.10 0.11 0.16 0.30 0.31 0.44 0.18 0.12 0.11 0.29 0.20 0.22 0.25 0.16 0.22 0.41 0.51 0.49 0.19 0.29
1.07 0.96 0.92 0.84 0.68 0.65 0.54 0.64 0.69 0.59 0.76 1.31 1.46 1.14 0.37 0.43 1.00 0.69 0.30 0.06 0.01 0.00 0.00 0.00 0.00 0.03 0.12 0.12 0.14 0.19 0.31 0.33 0.34 0.18 0.08 0.11 0.43 0.24 0.16 0.08 0.04 0.18 0.27 0.50 0.75 0.40 0.26
1.30 1.03 0.90 1.04 0.95 0.91 0.81 0.77 0.79 0.69 1.04 1.53 1.91 1.14 0.95 0.92 0.98 0.42 0.19 0.05 0.02 0.00 0.01 0.01 0.02 0.04 0.07 0.10 0.21 0.13 0.31 0.35 0.52 0.32 0.13 0.36 0.41 0.45 0.40 0.34 0.19 0.37 0.46 0.44 0.77 0.80 0.65
1.33 1.14 0.89 0.90 0.95 1.04 0.99 0.92 0.85 0.86 1.13 1.88 2.51 1.85 1.95 1.34 0.64 0.36 0.33 0.14 0.04 0.00 0.01 0.03 0.02 0.05 0.10 0.13 0.17 0.17 0.26 0.48 0.76 0.54 0.24 0.65 0.41 0.55 0.32 0.33 0.57 0.58 0.53 0.65 0.77 0.89 0.49
1.28 1.21 1.00 0.94 0.93 1.02 1.08 1.14 1.09 1.16 1.35 2.83 3.24 1.30 0.85 0.86 0.46 0.38 0.49 0.46 0.19 0.10 0.07 0.03 0.08 0.13 0.17 0.17 0.11 0.09 0.29 0.74 0.96 0.70 0.38 0.62 0.41 0.71 0.52 0.16 0.25 0.52 0.62 0.61 0.90 0.64 0.58
1.16 1.02 0.96 0.94 1.00 1.14 1.10 1.18 1.26 1.56 2.00 4.19 3.43 0.56 0.39 0.43 0.43 0.72 0.50 0.40 0.31 0.29 0.34 0.21 0.19 0.08 0.09 0.11 0.10 0.17 0.31 0.41 0.69 0.51 0.53 0.64 0.56 0.85 1.01 0.36 0.47 0.64 0.79 0.51 0.71 0.60 0.52
1.06 0.96 0.95 0.87 0.93 1.08 1.12 1.11 1.29 1.78 3.10 5.38 3.01 0.40 0.52 0.36 0.21 0.54 0.55 0.40 0.51 0.73 0.37 0.15 0.31 0.18 0.12 0.18 0.12 0.06 0.13 0.13 0.19 0.41 0.63 0.75 1.09 0.99 1.05 0.32 0.35 0.68 0.71 0.59 0.46 0.27 0.18
1.09 1.05 0.96 0.95 0.88 1.04 1.03 1.06 1.21 1.94 2.85 3.26 1.80 0.56 0.84 0.64 0.23 0.14 0.10 0.23 0.37 0.52 1.16 0.34 0.22 0.23 0.20 0.12 0.14 0.15 0.09 0.05 0.09 0.14 0.60 0.94 0.83 0.70 0.74 0.43 0.55 0.68 0.36 0.39 0.46 0.34 0.15
1.33 1.19 1.13 1.15 1.06 1.11 1.12 1.10 1.13 1.56 2.05 2.20 1.67 0.89 0.85 0.62 0.18 0.09 0.04 0.09 0.16 0.50 0.64 0.81 0.57 0.37 0.18 0.14 0.34 0.42 0.41 0.42 0.14 0.17 0.41 0.73 0.67 0.65 0.61 0.40 0.44 0.28 0.30 0.37 0.74 0.67 0.36
1.42 1.25 1.15 1.18 1.20 1.22 1.18 1.05 0.97 1.11 1.75 2.18 2.10 1.48 1.53 1.10 0.29 0.06 0.06 0.05 0.11 0.32 0.28 0.34 0.62 0.50 0.35 0.25 0.56 0.67 0.51 0.54 0.29 0.17 0.09 0.25 0.53 0.66 0.40 0.31 0.28 0.16 0.11 0.26 0.51 1.13 0.97
1.12 1.07 0.90 0.94 1.07 1.02 1.05 0.96 0.82 0.80 1.29 2.21 2.65 1.56 2.43 1.96 0.35 0.23 0.24 0.16 0.10 0.19 0.25 0.23 0.27 0.24 0.21 0.43 0.54 0.34 0.29 0.20 0.34 0.37 0.23 0.24 0.49 0.43 0.41 0.38 0.12 0.04 0.06 0.20 0.97 1.11 1.07
0.94 0.99 0.81 0.85 0.82 0.68 0.79 0.76 0.66 0.73 1.12 1.87 2.72 1.39 2.08 2.20 0.57 0.25 0.27 0.26 0.14 0.22 0.44 0.36 0.64 0.44 0.46 0.46 0.26 0.17 0.30 0.44 0.45 0.36 0.32 0.38 0.60 0.46 0.39 0.43 0.20 0.14 0.28 0.66 0.99 1.03 1.04
0.82 0.80 0.66 0.72 0.68 0.57 0.54 0.59 0.66 0.73 1.18 1.61 2.41 1.46 1.43 2.16 1.24 0.36 0.24 0.20 0.14 0.15 0.45 0.59 0.54 0.64 0.70 0.62 0.41 0.33 0.35 0.30 0.40 0.51 0.28 0.41 0.39 0.36 0.33 0.38 0.42 0.22 0.36 0.65 0.71 0.78 0.79

GFSGBSN_prec_precacc_117.txt.gz
Total_Precipitation_Accumulation
0.32 0.31 0.27 0.22 0.16 0.11 0.07 0.06 0.05 0.04 0.03 0.03 0.03 0.02 0.03 0.03 0.03 0.02 0.02 0.02 0.02 0.02 0.02 0.02 0.02 0.03 0.01 0.00 0.00 0.00 0.00 0.00 0.00 0.00 0.00 0.00 0.00 0.00 0.00 0.00 0.00 0.00 0.00 0.00 0.01 0.01 0.01
0.21 0.24 0.25 0.23 0.29 0.30 0.20 0.14 0.10 0.06 0.04 0.05 0.04 0.03 0.03 0.03 0.02 0.02 0.02 0.02 0.02 0.02 0.02 0.02 0.02 0.03 0.00 0.00 0.00 0.00 0.00 0.00 0.00 0.00 0.00 0.00 0.00 0.00 0.00 0.00 0.00 0.00 0.00 0.00 0.02 0.00 0.00
0.27 0.26 0.26 0.25 0.20 0.19 0.18 0.16 0.12 0.09 0.08 0.07 0.06 0.05 0.03 0.03 0.03 0.02 0.02 0.02 0.02 0.02 0.02 0.02 0.02 0.02 0.00 0.00 0.00 0.00 0.00 0.00 0.00 0.00 0.00 0.00 0.00 0.00 0.00 0.00 0.00 0.00 0.00 0.00 0.00 0.01 0.01
0.46 0.42 0.38 0.37 0.31 0.24 0.20 0.18 0.16 0.13 0.13 0.11 0.11 0.10 0.07 0.04 0.04 0.02 0.02 0.02 0.02 0.02 0.03 0.03 0.03 0.01 0.00 0.00 0.00 0.00 0.00 0.00 0.00 0.00 0.00 0.00 0.00 0.00 0.00 0.00 0.00 0.00 0.00 0.00 0.00 0.01 0.02
0.40 0.36 0.34 0.37 0.35 0.32 0.29 0.28 0.27 0.26 0.23 0.19 0.17 0.18 0.17 0.14 0.08 0.04 0.03 0.02 0.02 0.03 0.03 0.02 0.01 0.00 0.00 0.00 0.00 0.00 0.00 0.02 0.00 0.00 0.00 0.00 0.00 0.00 0.00 0.00 0.00 0.00 0.00 0.00 0.00 0.00 0.01
0.47 0.41 0.39 0.37 0.32 0.28 0.22 0.21 0.20 0.19 0.21 0.22 0.20 0.21 0.19 0.17 0.11 0.06 0.03 0.02 0.02 0.02 0.01 0.00 0.01 0.00 0.00 0.00 0.00 0.00 0.00 0.02 0.01 0.00 0.00 0.00 0.00 0.00 0.00 0.00 0.00 0.00 0.00 0.00 0.02 0.07 0.00
0.49 0.43 0.33 0.29 0.24 0.23 0.21 0.20 0.17 0.14 0.15 0.14 0.17 0.19 0.18 0.18 0.13 0.08 0.03 0.01 0.00 0.00 0.00 0.00 0.00 0.00 0.00 0.00 0.00 0.00 0.00 0.00 0.00 0.00 0.02 0.00 0.00 0.00 0.00 0.00 0.00 0.00 0.00 0.00 0.00 0.00 0.00
0.48 0.46 0.40 0.40 0.38 0.36 0.35 0.33 0.28 0.22 0.17 0.15 0.17 0.19 0.15 0.10 0.09 0.06 0.02 0.00 0.00 0.00 0.01 0.00 0.00 0.00 0.00 0.00 0.00 0.00 0.00 0.03 0.02 0.03 0.02 0.02 0.01 0.00 0.00 0.00 0.00 0.00 0.00 0.00 0.00 0.00 0.00
0.52 0.47 0.37 0.32 0.30 0.27 0.26 0.29 0.26 0.23 0.20 0.20 0.21 0.22 0.15 0.12 0.08 0.02 0.00 0.00 0.00 0.00 0.01 0.00 0.00 0.00 0.00 0.00 0.00 0.00 0.00 0.01 0.03 0.02 0.03 0.03 0.02 0.00 0.00 0.00 0.00 0.00 0.00 0.00 0.00 0.00 0.00
0.47 0.44 0.42 0.41 0.37 0.31 0.27 0.24 0.22 0.22 0.26 0.29 0.33 0.34 0.26 0.21 0.07 0.00 0.00 0.00 0.00 0.00 0.04 0.00 0.00 0.00 0.00 0.00 0.00 0.00 0.00 0.00 0.01 0.01 0.06 0.09 0.00 0.01 0.01 0.00 0.00 0.00 0.00 0.00 0.00 0.00 0.00
0.50 0.48 0.45 0.43 0.38 0.33 0.33 0.37 0.35 0.32 0.28 0.29 0.30 0.26 0.22 0.15 0.05 0.03 0.02 0.01 0.00 0.04 0.10 0.00 0.00 0.00 0.00 0.00 0.00 0.00 0.00 0.00 0.01 0.02 0.08 0.10 0.01 0.01 0.00 0.00 0.00 0.01 0.00 0.00 0.00 0.00 0.05
0.48 0.40 0.38 0.41 0.38 0.34 0.31 0.32 0.28 0.26 0.25 0.26 0.27 0.22 0.25 0.13 0.05 0.02 0.01 0.01 0.05 0.14 0.07 0.00 0.00 0.00 0.00 0.00 0.00 0.00 0.00 0.00 0.02 0.14 0.06 0.01 0.01 0.05 0.02 0.00 0.00 0.00 0.02 0.04 0.03 0.04 0.07
0.52 0.41 0.37 0.37 0.34 0.34 0.31 0.27 0.26 0.29 0.31 0.29 0.27 0.25 0.23 0.10 0.07 0.02 0.01 0.11 0.21 0.11 0.00 0.00 0.00 0.00 0.00 0.00 0.00 0.00 0.00 0.00 0.02 0.12 0.09 0.03 0.04 0.03 0.00 0.01 0.01 0.01 0.12 0.26 0.27 0.11 0.05
0.70 0.55 0.48 0.43 0.37 0.35 0.36 0.32 0.27 0.33 0.43 0.46 0.37 0.34 0.20 0.11 0.06 0.07 0.19 0.40 0.25 0.04 0.02 0.01 0.00 0.00 0.00 0.01 0.01 0.01 0.02 0.00 0.00 0.03 0.12 0.17 0.12 0.03 0.06 0.04 0.05 0.05 0.18 0.28 0.35 0.16 0.07
0.86 0.80 0.64 0.48 0.37 0.35 0.35 0.32 0.34 0.46 0.62 0.65 0.69 0.46 0.28 0.11 0.08 0.17 0.60 0.56 0.07 0.01 0.00 0.00 0.00 0.01 0.03 0.07 0.08 0.03 0.04 0.04 0.02 0.09 0.24 0.16 0.09 0.03 0.04 0.04 0.12 0.22 0.18 0.09 0.37 0.27 0.27
1.05 0.93 0.83 0.66 0.55 0.45 0.40 0.38 0.42 0.50 0.57 0.66 0.64 0.62 0.30 0.10 0.20 0.59 1.06 0.34 0.01 0.02 0.00 0.00 0.01 0.05 0.09 0.05 0.09 0.13 0.11 0.20 0.13 0.21 0.17 0.25 0.42 0.09 0.05 0.13 0.15 0.22 0.22 0.45 0.60 0.54 0.34
1.10 0.94 0.83 0.73 0.60 0.54 0.50 0.48 0.51 0.48 0.55 0.85 1.04 1.14 0.38 0.16 0.76 1.31 0.95 0.14 0.00 0.00 0.00 0.00 0.02 0.07 0.09 0.10 0.11 0.16 0.30 0.31 0.44 0.18 0.12 0.11 0.29 0.20 0.22 0.25 0.16 0.22 0.41 0.51 0.50 0.20 0.30
1.07 0.96 0.92 0.84 0.69 0.65 0.54 0.64 0.71 0.63 0.80 1.37 1.56 1.36 0.51 0.48 1.09 0.78 0.31 0.06 0.01 0.00 0.00 0.00 0.00 0.03 0.12 0.12 0.14 0.19 0.31 0.33 0.34 0.18 0.08 0.11 0.43 0.24 0.16 0.08 0.04 0.18 0.27 0.50 0.76 0.43 0.31
1.31 1.03 0.90 1.05 0.95 0.92 0.81 0.77 0.83 0.75 1.06 1.56 2.02 1.34 1.14 1.00 1.04 0.43 0.19 0.05 0.02 0.00 0.01 0.01 0.02 0.04 0.07 0.10 0.21 0.13 0.31 0.35 0.52 0.32 0.13 0.36 0.41 0.45 0.40 0.36 0.21 0.39 0.46 0.44 0.78 0.82 0.67
1.34 1.15 0.90 0.91 0.95 1.05 0.99 0.92 0.90 0.92 1.14 1.90 2.59 2.04 2.20 1.49 0.68 0.36 0.33 0.14 0.04 0.00 0.01 0.03 0.02 0.05 0.10 0.13 0.17 0.17 0.26 0.48 0.76 0.54 0.24 0.66 0.41 0.55 0.33 0.37 0.60 0.59 0.54 0.66 0.78 0.91 0.50
1.29 1.22 1.01 0.95 0.94 1.02 1.08 1.14 1.15 1.23 1.38 2.86 3.30 1.36 0.92 0.92 0.47 0.38 0.49 0.46 0.19 0.10 0.07 0.03 0.08 0.13 0.17 0.17 0.11 0.09 0.29 0.74 0.96 0.70 0.38 0.62 0.42 0.71 0.52 0.16 0.25 0.52 0.63 0.61 0.91 0.65 0.61
1.18 1.04 0.98 0.96 1.02 1.15 1.11 1.21 1.32 1.61 2.04 4.21 3.46 0.57 0.39 0.43 0.43 0.72 0.50 0.40 0.31 0.29 0.34 0.21 0.20 0.08 0.09 0.11 0.10 0.17 0.31 0.41 0.69 0.51 0.53 0.65 0.57 0.86 1.01 0.36 0.47 0.65 0.80 0.52 0.72 0.61 0.55
1.08 0.98 0.98 0.90 0.95 1.10 1.12 1.13 1.34 1.82 3.14 5.43 3.03 0.40 0.52 0.36 0.21 0.54 0.55 0.40 0.51 0.73 0.37 0.15 0.31 0.18 0.12 0.18 0.12 0.06 0.13 0.13 0.19 0.41 0.63 0.77 1.10 1.01 1.08 0.33 0.36 0.71 0.71 0.61 0.49 0.29 0.21
1.11 1.07 0.98 0.98 0.90 1.06 1.05 1.10 1.26 1.98 2.88 3.27 1.81 0.56 0.84 0.65 0.23 0.14 0.10 0.23 0.37 0.52 1.16 0.35 0.22 0.23 0.20 0.12 0.14 0.15 0.09 0.05 0.09 0.14 0.61 0.96 0.86 0.73 0.77 0.44 0.59 0.71 0.37 0.41 0.48 0.36 0.16
1.36 1.22 1.14 1.17 1.09 1.14 1.17 1.16 1.21 1.63 2.09 2.21 1.67 0.89 0.86 0.62 0.19 0.10 0.04 0.09 0.16 0.50 0.64 0.81 0.57 0.37 0.18 0.14 0.34 0.43 0.43 0.42 0.15 0.17 0.41 0.73 0.70 0.70 0.63 0.43 0.46 0.28 0.31 0.38 0.77 0.69 0.36
1.46 1.31 1.17 1.21 1.25 1.28 1.26 1.14 1.08 1.19 1.82 2.20 2.12 1.49 1.53 1.11 0.31 0.06 0.07 0.05 0.11 0.32 0.28 0.34 0.62 0.50 0.35 0.25 0.56 0.68 0.54 0.56 0.31 0.18 0.10 0.27 0.56 0.72 0.43 0.36 0.30 0.17 0.11 0.26 0.51 1.15 0.97
1.17 1.11 0.96 1.03 1.17 1.13 1.17 1.08 0.93 0.88 1.34 2.23 2.67 1.59 2.46 1.98 0.35 0.23 0.25 0.16 0.10 0.19 0.25 0.23 0.27 0.24 0.21 0.44 0.55 0.37 0.34 0.21 0.37 0.40 0.26 0.28 0.53 0.47 0.42 0.42 0.14 0.04 0.06 0.20 0.99 1.14 1.07
1.03 1.06 0.92 0.99 0.97 0.85 0.96 0.88 0.77 0.80 1.15 1.89 2.74 1.42 2.10 2.22 0.58 0.25 0.27 0.26 0.14 0.22 0.44 0.36 0.64 0.44 0.46 0.47 0.30 0.20 0.32 0.45 0.46 0.36 0.32 0.40 0.63 0.49 0.42 0.47 0.22 0.14 0.28 0.67 0.99 1.03 1.04
1.00 0.97 0.86 0.96 0.89 0.78 0.71 0.69 0.73 0.77 1.22 1.63 2.43 1.47 1.44 2.17 1.24 0.36 0.24 0.20 0.14 0.15 0.45 0.59 0.54 0.64 0.70 0.64 0.43 0.35 0.36 0.30 0.40 0.51 0.28 0.42 0.40 0.38 0.34 0.40 0.42 0.23 0.36 0.65 0.71 0.78 0.79